Theta_e
348 350 351 351 351 351 349 348 347 347 348 347 345 345 344 344 344 339 341 341 338 337 340 345 347 347 349 347 347 349 349 349 350 350 350 350 350 347 348 348 345 344 344 343 344 345 346 346 346 346 346 344 343 346 347 346 345 347 348 348 350 350 348 347 345 345 345 344 346 345 344 344 343 344 345 344 344 343 341 341 344 344 343 344 344
348 350 350 351 351 351 350 348 347 348 348 346 346 346 345 345 345 343 342 341 341 340 341 346 348 348 349 347 347 348 348 349 349 350 351 350 345 344 349 349 345 345 343 343 344 345 346 346 346 346 345 344 343 344 344 344 343 347 350 350 350 349 347 347 346 347 347 345 346 346 345 344 342 343 344 343 343 343 343 342 342 343 344 344 344
348 349 350 350 351 351 351 349 348 347 348 347 347 347 346 347 345 344 344 342 343 341 339 345 347 347 349 348 347 347 348 350 350 350 351 351 345 343 347 345 345 347 346 346 346 345 345 346 348 348 345 344 344 344 344 344 343 346 350 349 348 350 348 347 347 347 346 346 347 347 346 344 344 344 344 344 343 343 343 342 341 341 344 343 342
348 348 349 350 351 352 351 351 349 347 347 348 349 348 346 346 343 341 343 342 343 340 338 345 346 345 347 348 347 347 348 349 349 348 348 350 349 346 344 342 347 351 350 351 351 346 343 346 348 347 345 343 343 344 345 347 347 349 351 347 347 349 349 348 348 347 347 347 348 348 346 346 346 346 345 344 343 344 343 343 342 341 344 344 341
348 347 348 349 350 351 352 351 350 348 347 347 349 349 348 346 341 339 341 341 341 339 339 344 343 342 344 344 344 344 345 346 347 347 347 347 349 349 346 341 345 350 349 350 350 345 344 346 345 346 346 344 344 347 348 349 350 352 350 348 350 350 349 350 349 349 348 346 347 349 348 348 348 346 346 345 343 344 344 344 343 342 345 345 343
347 347 347 349 350 351 352 352 350 349 348 347 348 349 349 348 343 339 340 342 342 339 339 343 343 342 343 343 344 345 346 347 347 348 348 348 350 351 348 342 342 347 348 347 347 345 344 346 345 346 347 344 344 347 348 349 351 354 350 350 354 351 347 351 350 350 350 347 348 350 349 348 349 348 349 348 345 345 345 344 345 345 345 346 346
346 346 346 348 349 350 352 353 351 349 348 347 347 348 349 350 346 341 341 342 344 341 338 342 344 344 345 346 347 348 348 349 349 349 349 350 352 352 349 344 340 346 349 345 344 345 344 345 345 345 346 346 345 345 349 352 353 354 349 347 350 347 347 352 351 350 351 350 349 349 349 349 349 349 349 349 348 349 348 346 345 346 345 346 347
345 345 346 346 348 350 351 352 351 350 348 347 347 347 349 350 347 343 342 343 344 343 339 341 344 345 345 347 349 349 348 349 349 350 351 351 352 352 352 349 341 342 347 344 343 345 344 344 344 344 345 345 344 346 351 353 353 351 346 345 345 345 349 352 351 351 351 351 351 349 350 350 349 349 349 348 348 349 348 346 345 346 346 347 347
344 344 345 346 347 349 349 351 351 349 348 348 348 347 349 349 345 342 343 343 344 344 342 342 344 344 344 347 349 349 349 350 349 350 350 350 350 349 349 351 346 341 342 342 343 344 343 344 344 343 344 345 347 352 354 351 349 347 346 348 349 349 350 350 350 353 351 352 353 352 352 350 350 350 350 350 349 349 348 346 346 347 347 348 348
344 343 345 345 346 347 348 350 350 349 349 348 348 348 349 348 344 341 342 343 343 343 343 343 343 343 343 346 349 349 350 351 350 350 349 348 349 348 345 346 349 348 346 342 341 343 343 344 345 346 347 349 348 350 351 349 349 348 348 350 349 349 349 349 352 354 352 351 352 353 352 351 351 350 350 350 349 349 349 347 346 347 347 348 350
344 343 344 345 345 346 347 349 350 350 350 349 348 348 350 349 345 340 341 341 341 341 342 343 344 344 343 344 347 349 350 350 350 349 348 347 347 350 348 346 347 350 351 347 343 345 345 344 348 351 350 348 346 346 351 353 353 354 353 350 347 347 348 348 350 352 353 352 352 353 352 350 351 349 350 351 349 349 349 347 346 348 347 348 350
344 343 343 344 345 345 346 348 349 351 350 349 349 349 350 351 346 340 339 340 338 340 341 342 344 345 344 345 347 349 349 350 350 349 350 350 349 350 349 346 345 346 350 351 349 350 349 344 347 351 347 346 347 350 352 351 352 354 354 352 350 349 347 347 348 351 353 353 353 353 351 350 351 349 350 351 350 350 349 348 348 349 349 349 351
344 344 343 343 344 345 346 348 350 352 352 350 349 350 350 352 349 341 338 338 338 340 342 342 344 344 343 345 347 347 347 349 350 351 351 352 353 353 350 347 346 345 348 350 350 352 351 345 345 347 345 345 347 347 347 346 347 352 354 354 353 352 350 348 348 351 353 352 352 352 351 351 351 351 351 350 350 351 351 350 350 350 349 349 351
343 344 344 344 345 346 346 348 351 352 352 351 350 350 351 352 351 344 338 337 338 341 343 343 343 343 342 344 346 347 347 348 350 353 354 353 353 353 353 352 350 349 350 350 350 351 352 349 345 345 345 344 343 343 344 344 343 347 351 352 354 355 352 348 349 352 353 352 352 352 352 351 351 352 351 350 351 350 350 351 351 352 351 349 350
343 343 345 345 345 347 346 348 351 351 351 351 350 351 352 352 351 346 340 338 338 340 342 343 344 344 343 342 344 347 348 350 351 351 352 353 353 353 353 353 353 353 353 350 348 347 349 350 345 344 345 343 344 344 344 346 344 343 346 347 350 355 353 350 352 354 354 354 354 353 353 352 351 352 351 350 351 350 350 352 352 353 353 352 351
343 344 345 346 346 347 347 348 350 350 350 351 351 351 352 353 351 347 344 341 339 339 340 342 344 346 345 341 342 344 346 349 350 349 348 351 353 353 352 351 352 354 354 352 349 347 347 349 349 349 347 343 344 344 343 346 345 343 346 345 347 354 355 352 352 354 354 354 354 354 354 353 352 353 352 350 351 351 351 352 353 354 356 356 354
343 344 345 346 347 347 347 348 348 349 349 350 352 352 351 352 351 348 346 344 342 339 338 340 342 344 343 341 342 344 345 349 351 350 351 352 352 351 352 353 352 353 353 353 353 350 348 348 351 354 352 348 347 347 346 346 343 345 349 348 348 353 355 351 351 353 355 354 353 354 355 355 354 354 353 351 353 353 353 353 354 355 357 356 355
344 345 347 347 348 348 348 349 349 348 349 350 350 349 347 347 350 350 347 346 344 342 341 341 342 342 343 342 343 344 347 351 352 353 353 354 352 350 351 353 353 353 353 353 354 354 351 347 347 349 351 350 348 349 350 347 344 347 350 349 348 349 348 348 348 350 353 354 353 353 353 354 354 354 353 353 354 355 354 354 355 355 356 356 357
345 347 348 348 348 349 348 349 349 349 349 348 346 346 345 345 349 351 350 348 348 348 348 348 347 347 348 347 345 345 348 351 353 354 354 353 353 352 352 353 353 354 353 350 351 354 354 351 347 348 351 350 349 349 350 347 346 349 352 352 352 349 344 344 347 350 353 353 353 353 353 353 354 354 354 353 354 355 355 355 355 355 356 356 357
347 346 346 345 347 349 348 347 346 346 347 348 346 347 349 349 349 351 351 351 351 352 352 351 351 351 352 350 347 344 346 350 352 353 353 353 353 353 353 353 353 354 354 352 350 352 354 354 352 352 354 354 353 353 353 353 352 351 350 351 354 351 346 345 349 353 354 354 355 354 353 353 353 354 354 353 354 355 355 356 355 355 356 356 356
346 345 344 343 345 347 348 346 344 343 344 347 347 347 350 352 351 349 350 352 352 352 353 353 353 353 352 352 350 346 346 349 351 351 351 353 353 353 353 354 354 354 354 354 353 352 352 352 353 354 354 355 355 352 353 355 354 351 349 348 349 347 344 346 349 350 351 354 354 351 349 351 352 353 354 354 354 354 355 355 355 356 356 355 357
345 344 343 345 346 347 349 348 346 346 347 346 346 347 349 352 351 349 350 351 352 352 353 353 353 353 352 351 351 350 349 350 352 352 351 352 353 353 353 353 354 355 353 353 353 353 352 351 353 354 353 354 354 350 351 355 355 354 353 352 352 351 349 349 349 348 349 351 352 350 350 352 354 354 355 354 353 353 353 354 354 354 355 354 355
345 343 344 348 348 347 349 349 347 348 347 345 345 346 346 347 349 348 347 348 349 353 353 350 350 351 350 349 350 352 351 351 352 353 352 352 352 353 353 352 353 354 354 353 353 354 354 352 352 352 351 352 353 351 353 355 354 353 353 353 353 355 356 355 354 353 354 354 355 354 354 355 355 355 356 355 355 355 354 354 354 354 354 354 355
346 344 346 348 349 349 349 348 346 345 344 342 342 342 341 341 343 343 343 343 344 348 349 346 346 348 349 349 350 351 352 352 352 353 353 352 352 353 353 353 353 353 353 354 352 354 354 351 350 351 351 351 352 352 353 355 354 354 353 352 352 353 354 354 355 355 355 354 355 355 356 356 356 356 357 356 356 355 355 355 355 355 356 355 356
349 349 348 348 350 350 349 346 343 341 341 341 340 340 339 339 340 340 341 342 342 343 343 343 345 347 350 352 351 350 352 353 353 353 353 353 351 352 353 353 353 352 353 354 353 354 354 351 351 354 354 353 353 353 353 354 354 355 355 354 354 353 353 353 354 353 352 353 353 354 355 355 355 356 356 356 356 356 356 356 356 355 356 356 356
351 352 351 351 351 351 349 346 342 340 340 341 340 339 339 339 339 339 340 341 342 342 342 343 345 346 348 350 351 352 353 353 352 351 352 353 352 351 352 353 353 353 353 354 354 354 355 354 354 355 355 355 355 354 354 354 354 355 355 355 355 355 355 355 355 355 354 354 354 355 355 355 355 355 355 356 356 355 356 356 356 356 356 356 356
353 353 353 352 350 351 351 348 345 343 342 341 340 339 339 339 339 339 340 341 341 342 342 342 344 346 345 345 349 353 354 354 353 350 347 350 352 352 352 352 353 353 353 353 353 354 355 356 356 355 355 355 355 354 354 354 354 354 355 355 355 355 355 355 355 355 355 355 355 355 355 355 355 356 355 356 356 356 356 356 356 357 356 357 356
354 355 354 353 349 348 349 347 345 345 344 343 342 341 341 340 339 339 340 340 341 341 342 342 344 346 345 342 345 351 353 353 352 348 343 345 349 352 353 353 353 353 352 352 352 353 354 354 355 355 355 355 354 354 353 353 353 354 354 354 353 353 354 354 354 355 354 355 355 355 355 355 355 356 356 354 354 355 355 356 356 356 355 355 355
353 354 354 353 350 347 346 345 344 343 343 344 345 343 342 340 340 340 341 341 342 342 342 342 343 345 346 346 346 349 350 350 349 347 345 342 344 349 352 353 353 353 352 352 352 352 353 353 353 354 354 354 353 353 352 352 352 353 352 352 351 351 352 351 351 353 354 355 355 355 355 354 354 354 353 350 349 350 351 352 353 353 352 352 351
352 354 355 355 353 350 347 345 345 343 342 343 344 343 341 341 341 341 341 342 343 343 343 343 343 344 345 347 348 348 349 349 349 349 348 344 342 346 352 353 352 353 353 352 352 352 353 353 353 353 354 353 352 352 351 351 351 350 350 350 349 349 348 347 348 349 351 353 353 354 354 354 352 351 350 349 349 349 348 348 348 349 349 350 350
351 352 354 354 354 353 351 349 347 346 344 344 344 343 342 342 342 342 343 344 344 345 345 344 343 344 344 346 348 349 350 350 350 350 351 349 346 347 351 352 350 350 350 349 350 352 353 353 353 353 352 351 351 351 351 350 349 348 348 348 348 349 350 350 350 351 352 352 352 352 352 352 352 351 352 351 348 348 347 347 347 348 348 349 351
349 350 352 353 353 353 353 352 350 349 347 345 344 342 341 342 342 342 344 347 348 346 345 344 344 344 344 346 348 350 351 352 351 350 350 350 349 348 348 346 346 349 349 348 350 351 350 351 353 353 352 351 351 351 350 349 348 348 347 346 347 349 351 352 353 354 354 353 352 352 352 352 351 351 352 350 346 345 347 348 348 348 347 347 349
348 349 351 351 352 352 352 353 352 352 351 350 347 345 343 341 341 341 343 346 349 346 343 344 345 344 345 347 348 349 349 349 350 349 347 347 348 349 348 346 348 352 351 349 349 349 348 350 353 354 353 352 351 350 349 349 348 348 347 347 347 348 349 351 352 353 352 352 352 352 352 352 353 353 352 350 346 344 346 347 347 347 347 346 347
348 348 350 350 351 351 351 352 353 352 352 352 351 350 348 346 344 345 344 345 347 346 345 346 347 347 348 349 349 348 347 345 346 348 348 346 346 347 348 348 350 351 350 350 351 350 349 350 351 353 353 352 350 349 350 349 348 348 347 347 348 347 347 349 350 350 351 351 351 350 348 349 351 352 352 349 346 345 345 345 346 346 347 346 346
346 345 346 347 348 349 349 350 351 351 351 351 352 352 352 350 349 349 347 345 347 347 347 349 350 350 350 350 349 349 348 346 345 345 347 348 347 346 346 348 348 347 347 349 352 352 351 349 349 351 352 351 349 349 349 348 347 348 347 347 348 348 347 348 349 350 350 350 350 348 347 346 346 346 347 346 345 346 345 345 345 345 345 344 344
346 344 344 344 346 347 348 348 349 350 349 350 350 350 351 351 350 350 349 348 348 348 348 348 350 350 350 349 349 349 350 350 348 345 344 347 348 348 347 347 348 348 347 347 349 351 351 349 350 351 351 350 348 347 347 347 347 347 347 348 349 349 349 349 350 351 350 349 349 349 348 347 347 347 347 347 346 346 345 345 346 346 345 345 346
346 346 345 345 346 346 347 347 347 348 348 348 349 349 350 350 350 349 350 349 349 348 349 349 349 348 348 347 346 346 348 350 348 345 345 346 347 347 347 347 348 349 349 349 350 350 350 350 350 350 350 349 347 347 347 348 349 349 349 350 350 350 350 350 350 350 349 348 349 349 349 349 349 349 349 349 348 347 346 346 346 345 346 346 348
345 346 345 345 346 346 347 347 347 347 347 347 348 348 348 348 348 349 349 349 349 350 350 350 349 348 347 347 346 347 348 348 346 345 345 347 348 349 348 349 350 350 351 350 350 350 349 349 349 349 349 348 348 349 349 349 349 349 348 349 349 349 349 348 348 348 348 347 348 348 348 348 349 349 349 348 348 347 347 347 347 347 348 348 349
345 345 344 344 345 345 345 346 346 346 346 346 347 347 347 347 347 347 347 347 348 349 349 349 349 349 348 349 349 348 348 346 345 345 346 347 349 349 349 349 349 349 350 350 350 349 349 349 349 349 350 349 349 349 349 348 347 347 346 346 346 346 346 346 346 346 345 345 346 346 346 346 345 346 345 346 346 346 346 346 346 347 348 350 351
344 344 343 343 344 344 344 344 344 344 344 344 345 346 346 346 346 345 345 345 345 346 346 346 346 347 347 348 349 348 348 346 346 347 347 347 348 349 349 348 348 347 347 347 348 349 349 348 348 348 347 347 347 347 346 345 344 343 343 342 342 342 342 342 342 342 341 341 342 342 342 342 342 342 343 343 343 343 343 343 343 344 345 346 348
343 342 342 342 342 342 342 342 342 342 342 342 343 344 343 343 343 343 342 341 341 342 342 342 343 345 346 346 346 347 347 346 346 346 346 345 346 346 346 345 345 345 345 345 346 346 346 345 345 345 344 343 343 342 341 340 339 338 337 337 337 338 338 337 337 338 337 338 339 340 340 340 341 341 341 342 342 342 342 342 342 342 342 343 345
340 340 341 341 341 341 340 340 339 339 339 340 341 341 340 339 340 340 339 339 340 340 341 342 343 343 343 344 344 344 345 344 344 344 344 343 343 343 344 343 343 343 343 343 343 342 342 342 341 339 338 336 335 335 334 333 332 331 331 331 332 333 334 333 331 329 330 334 337 339 339 340 340 340 341 341 341 341 341 341 342 342 341 342 343
337 337 338 338 338 338 338 338 338 338 338 339 339 338 337 337 336 336 336 336 336 337 338 339 340 341 341 341 340 340 341 341 341 341 342 340 339 340 341 342 341 341 340 339 338 338 338 337 336 334 333 332 331 330 330 328 326 325 324 323 323 324 326 327 324 320 318 323 331 336 337 337 338 337 337 338 338 338 339 340 342 342 341 341 342
333 333 334 335 336 336 336 336 336 335 335 335 336 336 335 334 334 334 335 335 335 335 334 333 333 334 335 335 335 336 336 337 337 338 338 338 337 338 338 339 338 337 337 336 335 335 335 334 334 333 332 331 330 329 328 326 325 324 323 322 321 319 319 320 320 315 311 313 321 331 334 332 331 330 329 330 331 331 332 335 337 338 339 338 338
329 328 328 328 328 329 329 329 330 330 331 331 331 330 329 328 327 327 327 328 328 328 327 325 323 324 324 325 326 328 329 330 331 333 334 334 334 334 335 336 335 334 335 335 334 334 334 333 333 333 333 332 329 327 326 324 323 322 321 318 316 314 312 313 315 315 313 310 312 320 324 324 323 323 323 325 326 323 321 323 326 330 333 334 333
325 323 322 321 321 321 322 321 320 321 322 321 320 319 319 319 319 319 319 318 318 318 319 318 318 317 317 318 319 320 320 321 321 322 325 326 326 326 328 330 330 330 332 333 333 334 333 332 331 331 330 329 327 326 324 318 314 313 311 309 308 308 306 306 309 313 315 314 311 311 314 317 319 321 321 324 327 325 319 317 318 320 324 325 327
325 325 323 322 321 322 322 320 318 319 319 318 318 319 320 320 321 320 318 316 316 316 316 315 314 314 314 314 316 316 317 317 317 316 316 318 318 317 320 325 328 330 332 332 331 329 328 329 329 326 323 325 327 325 319 311 306 306 306 305 305 306 305 305 306 308 312 315 312 307 308 314 320 323 323 326 329 330 328 326 324 323 321 321 324
327 325 324 322 320 320 319 318 317 319 321 321 321 322 323 323 322 321 318 317 317 317 316 314 312 311 311 311 311 311 312 312 313 313 312 313 313 312 312 315 318 321 324 324 322 317 315 319 322 319 316 318 320 318 312 307 307 307 306 306 305 305 305 305 305 306 308 309 311 312 316 322 327 328 328 329 331 332 332 332 331 330 327 326 328
326 324 323 322 320 318 318 317 318 319 320 321 322 323 323 322 321 319 318 317 317 318 318 318 316 314 312 312 311 311 311 310 311 311 310 310 310 310 310 310 310 311 313 313 313 311 310 312 313 312 310 311 311 310 309 308 308 307 306 306 305 305 305 305 305 306 304 306 316 326 329 330 331 330 329 329 330 330 330 331 331 331 331 330 330
322 322 321 320 317 314 313 314 316 317 317 318 320 322 323 323 322 319 317 317 318 318 318 318 318 316 314 313 312 312 313 312 312 312 311 312 311 311 311 311 310 311 311 311 311 311 311 311 310 310 310 310 309 310 309 309 308 307 306 306 305 305 305 305 305 305 304 310 323 331 331 329 330 330 329 329 329 329 328 328 329 329 330 331 331
318 317 317 318 318 318 318 317 317 317 316 316 317 317 318 318 319 318 317 319 321 322 320 319 318 316 315 314 313 313 313 313 313 312 312 312 312 311 311 311 311 311 311 311 311 311 310 311 310 310 311 310 309 309 309 308 308 307 306 306 306 305 305 306 305 305 311 322 329 330 329 329 330 329 328 327 327 327 327 327 327 328 329 331 330
Wind_Speed
12 12 12 12 12 12 13 14 14 14 14 15 16 16 17 17 17 19 18 18 19 18 17 15 13 12 12 11 10 9 9 8 8 8 7 8 9 8 7 6 6 7 7 6 6 6 6 6 6 6 5 6 6 4 3 2 4 5 6 6 5 5 4 4 4 3 3 3 3 3 3 3 2 1 1 1 1 1 1 1 1 2 2 2 2
13 13 13 12 13 13 14 14 15 15 15 16 16 16 17 16 17 18 18 18 18 18 17 14 13 12 11 10 9 9 8 8 7 7 7 7 9 9 7 6 7 7 7 7 6 5 5 5 5 5 5 6 5 4 2 1 2 5 6 5 4 4 5 4 5 4 3 3 2 2 2 3 2 1 1 1 1 1 0 0 1 3 3 3 5
14 14 14 13 13 14 14 15 16 16 16 16 16 16 17 17 17 18 17 18 18 18 18 15 13 12 11 9 8 7 7 7 7 8 7 6 7 8 7 7 7 6 6 6 5 5 5 5 4 4 4 5 4 3 2 1 1 3 4 4 3 4 4 4 5 4 4 3 2 2 1 2 2 0 1 1 1 1 2 1 1 3 3 4 5
15 14 14 14 14 15 15 15 16 16 17 17 16 17 17 18 19 19 18 18 18 18 18 15 14 14 12 11 10 9 8 8 9 9 8 7 6 6 6 7 7 5 4 4 3 4 5 4 4 4 3 4 4 3 2 1 1 2 2 3 4 3 3 4 4 5 5 3 2 2 1 1 1 1 1 1 2 2 2 1 1 3 4 4 5
16 15 15 15 15 16 16 16 17 17 17 18 18 17 17 18 20 19 18 18 17 18 17 15 14 14 12 11 11 11 9 9 8 8 8 7 6 5 5 6 6 5 5 5 4 4 4 4 4 4 3 3 3 2 2 1 1 1 2 2 4 4 3 4 3 4 4 4 4 3 2 2 3 4 2 1 3 3 2 2 3 4 5 4 6
16 15 15 15 15 16 16 17 17 17 18 18 18 17 17 17 19 19 18 18 17 17 17 15 14 14 12 11 10 10 9 8 8 8 7 6 6 5 5 5 6 5 4 4 4 3 3 3 3 4 3 3 3 3 2 1 1 1 1 2 3 3 3 4 3 3 4 4 4 3 2 2 4 5 4 2 3 4 4 5 3 4 6 5 5
17 16 16 16 15 16 17 17 18 18 18 18 18 18 17 17 19 19 18 18 17 17 17 15 14 14 13 11 9 9 8 8 8 8 7 6 6 5 4 4 5 6 5 5 4 4 4 3 3 3 3 2 3 3 3 1 0 1 2 1 2 3 3 4 4 3 4 3 3 2 2 3 3 3 5 5 4 4 5 6 5 5 7 6 5
18 17 17 16 16 16 17 18 18 17 17 18 18 18 18 18 19 19 18 18 17 17 17 16 14 13 13 12 10 9 8 7 8 7 6 6 6 5 4 4 5 6 6 5 5 4 4 3 3 3 3 2 2 2 1 1 1 1 2 2 3 4 3 3 3 3 3 3 2 3 2 3 3 3 4 5 5 6 6 6 7 7 7 6 6
19 18 18 17 17 17 17 17 17 17 17 18 18 18 18 19 19 19 18 17 17 17 16 16 15 13 14 13 10 9 8 6 6 6 6 6 5 5 5 4 4 5 6 6 5 5 4 3 3 3 2 1 1 1 1 2 2 2 2 2 2 3 3 3 3 3 3 3 3 3 3 4 4 4 4 4 5 5 6 8 8 7 7 6 6
20 18 18 18 18 17 17 17 16 16 17 18 18 17 18 18 18 19 18 17 17 17 17 16 15 14 14 13 11 10 8 7 7 6 6 6 5 5 5 5 4 4 4 5 5 5 4 4 3 2 2 2 2 3 2 2 2 2 2 2 3 3 4 3 3 3 3 4 3 3 4 4 4 5 5 5 5 6 7 9 9 7 8 7 6
21 20 19 18 18 17 17 17 16 16 16 17 18 18 18 18 18 18 18 17 17 17 16 16 16 15 14 14 12 10 8 8 7 7 6 5 5 5 5 5 5 5 4 5 5 4 4 4 3 3 3 3 3 2 2 1 1 2 3 4 4 4 5 4 4 4 5 5 4 4 5 5 5 5 5 5 6 7 7 9 9 8 9 8 6
22 21 20 19 19 19 18 17 17 16 16 17 18 18 18 18 18 19 18 18 17 17 16 15 15 15 15 14 13 11 10 8 7 7 6 5 5 5 5 5 5 5 5 5 5 5 5 5 4 4 4 4 3 3 3 3 3 2 3 4 4 5 5 5 4 4 4 5 5 5 6 6 5 6 6 5 6 7 7 9 9 8 9 8 7
23 22 21 21 20 20 20 19 18 17 17 17 18 19 18 18 19 19 19 19 18 17 16 15 16 16 16 15 14 12 12 10 8 7 7 6 5 5 5 5 5 5 5 5 5 5 6 6 5 5 5 5 5 5 5 6 5 3 3 3 4 5 5 5 5 4 5 5 5 6 6 6 6 6 7 6 6 6 7 8 8 8 9 9 7
24 23 23 21 21 21 21 20 19 19 18 18 18 19 18 18 19 20 20 20 20 19 17 16 16 16 16 15 14 13 12 10 9 7 7 7 6 6 5 5 5 5 5 6 6 6 6 6 6 6 6 6 6 6 6 7 6 5 5 4 4 5 6 6 6 5 5 6 6 6 7 7 7 7 7 7 6 7 7 7 8 8 9 9 7
25 24 23 23 22 21 22 21 21 20 20 18 19 19 19 19 20 21 21 20 21 20 19 18 16 16 16 16 15 14 12 11 10 9 9 8 7 7 7 6 6 5 5 6 7 7 7 7 7 6 7 7 6 6 6 6 7 7 7 7 6 6 7 7 6 6 6 6 6 7 7 7 7 7 7 7 7 7 7 7 7 8 9 8 7
25 24 23 23 23 22 22 22 21 21 21 20 19 20 20 20 20 21 21 21 21 21 20 19 17 16 16 15 15 15 14 12 12 11 10 9 8 8 8 7 7 6 6 6 6 7 8 7 6 6 7 7 7 7 7 7 8 7 8 9 7 6 7 8 7 7 7 7 7 8 8 8 8 8 8 8 7 7 7 7 7 7 8 8 8
25 25 24 24 23 23 23 23 22 21 21 21 21 21 22 21 21 21 21 21 20 20 20 19 18 17 16 16 16 15 15 13 12 11 9 9 10 10 8 8 8 7 6 6 6 7 8 8 7 6 7 7 7 7 7 7 9 7 7 9 8 7 9 9 8 8 8 8 8 8 8 9 8 8 9 8 8 8 8 7 7 7 7 8 9
25 24 23 23 23 23 23 23 23 22 21 22 23 23 22 21 21 22 22 21 20 20 19 18 17 17 17 16 16 16 15 13 12 11 10 10 10 10 9 9 8 8 7 8 7 7 8 9 8 8 8 8 7 7 7 8 8 7 8 9 9 9 10 10 9 9 9 9 9 9 9 9 9 9 9 9 8 9 8 8 8 7 8 8 9
24 23 23 24 23 23 24 24 24 23 22 23 23 23 22 21 21 21 21 21 20 19 19 19 18 17 16 16 16 17 16 14 13 12 11 10 10 10 10 10 9 8 9 10 9 7 7 8 8 8 7 8 7 7 7 8 8 7 7 7 8 9 10 9 9 8 8 8 9 9 9 9 9 9 10 9 9 9 9 8 8 8 9 9 10
24 26 27 27 25 23 25 26 26 26 25 23 23 23 22 21 21 21 21 21 21 20 19 20 19 17 17 16 17 17 17 16 15 14 12 11 11 11 10 10 10 9 9 10 9 9 8 8 7 7 7 7 7 7 7 8 8 7 7 6 7 10 10 8 8 8 7 8 9 10 10 10 10 10 10 10 9 10 10 10 10 9 10 10 11
25 30 30 29 27 24 24 27 28 27 26 24 24 23 22 20 21 21 21 21 21 20 20 20 19 19 18 17 17 17 17 16 15 15 14 12 12 12 11 10 10 10 10 10 10 10 10 9 8 8 8 8 9 9 8 8 9 9 8 7 8 10 9 8 8 8 8 8 10 11 11 10 11 11 11 10 10 10 10 10 10 10 10 10 10
26 31 29 26 26 24 23 26 27 26 26 26 25 24 23 22 21 21 21 21 21 21 22 22 20 19 19 18 18 17 17 16 16 15 15 14 14 13 12 12 11 11 11 10 10 9 10 9 8 9 9 9 10 10 8 8 9 9 8 7 7 8 8 8 8 9 8 8 10 11 11 10 10 10 11 11 11 11 11 11 11 11 11 10 10
29 30 27 23 24 24 24 25 27 26 26 27 26 25 25 24 24 23 22 22 21 21 22 23 21 21 20 19 18 17 17 17 16 16 15 14 14 13 13 13 11 11 11 11 10 9 10 10 10 10 11 9 10 9 8 8 9 9 9 8 8 8 8 8 8 8 8 8 9 10 10 9 9 10 11 11 11 11 11 11 11 11 11 11 10
28 27 24 21 22 23 24 26 28 28 28 28 27 27 27 27 26 26 24 22 22 22 22 22 21 21 20 19 19 18 17 17 16 16 15 15 14 13 13 13 12 11 10 11 11 10 11 11 10 10 10 9 9 9 8 8 9 9 9 9 9 9 9 9 8 8 8 8 9 10 10 10 10 11 12 12 11 11 11 11 12 11 12 12 11
21 21 20 20 20 22 25 28 30 31 30 29 28 28 28 27 27 26 25 24 23 22 21 20 19 20 20 19 19 19 18 17 17 16 15 14 14 13 13 12 12 11 10 10 10 10 11 11 10 9 9 9 9 8 8 8 8 9 9 9 9 9 9 9 9 9 9 9 10 10 10 10 10 11 12 12 11 12 12 12 12 12 12 12 12
17 17 17 18 19 21 25 29 31 32 31 30 29 28 28 27 27 26 26 26 24 22 21 19 18 19 21 21 20 19 18 18 18 17 16 14 13 13 13 12 11 11 11 10 10 10 10 10 10 9 9 9 9 8 9 9 8 9 9 9 9 10 9 9 9 10 10 10 10 11 11 11 11 12 12 12 12 12 13 13 13 14 13 13 14
14 15 15 17 20 21 23 26 29 31 31 30 30 29 29 28 27 27 28 27 25 24 22 20 19 19 21 22 21 20 18 17 17 18 18 16 14 13 12 12 11 11 11 11 10 10 10 10 10 10 10 10 10 10 10 10 9 9 10 10 10 10 10 10 10 10 10 11 11 11 12 12 12 13 12 12 12 12 13 13 13 14 14 14 15
12 14 15 17 21 24 25 27 29 29 29 29 29 30 30 30 29 29 29 29 28 26 24 21 20 20 22 23 22 21 19 18 18 18 18 18 16 14 12 12 12 12 12 11 11 11 10 10 10 10 10 11 11 11 11 11 10 10 10 11 11 11 11 11 11 11 11 12 12 12 12 12 12 13 14 13 13 13 13 14 13 14 15 15 15
11 13 14 16 19 22 25 27 29 29 29 28 28 29 31 31 30 30 30 30 29 28 26 24 22 22 22 22 22 22 21 20 19 18 18 18 17 16 14 13 12 12 11 11 12 11 11 11 10 10 11 11 11 12 13 12 11 11 11 13 13 13 13 13 13 13 12 12 13 13 13 13 13 14 15 16 16 16 17 17 16 17 17 18 18
8 9 11 12 14 16 20 23 25 28 28 28 28 29 30 30 30 30 30 30 30 29 28 27 26 25 24 23 22 22 22 21 20 18 17 17 17 16 14 13 13 12 12 13 13 12 12 11 10 11 11 10 12 15 14 12 12 13 13 14 15 15 15 15 16 16 14 13 14 14 14 16 16 15 16 16 17 17 18 19 19 20 20 19 19
4 6 7 8 9 10 12 15 18 20 22 24 25 27 28 28 28 29 29 28 28 27 27 26 27 27 26 24 23 22 22 22 20 17 15 15 16 16 15 15 15 13 14 15 15 13 13 11 10 10 10 11 14 16 14 12 12 13 13 14 14 15 16 16 16 17 15 14 15 15 15 18 18 16 15 16 17 18 18 19 20 21 21 20 19
3 4 5 6 7 8 8 9 11 12 14 18 21 23 25 26 28 28 27 23 22 24 26 26 26 27 27 26 24 22 21 20 18 17 15 14 15 15 17 17 16 14 15 16 15 15 15 13 10 10 9 11 15 15 14 14 15 15 15 15 14 13 14 14 14 15 15 15 16 16 16 16 17 17 18 20 21 20 19 20 21 21 21 21 20
3 4 4 5 6 7 7 7 7 8 9 12 15 18 20 23 25 25 24 22 20 23 26 26 26 27 26 26 25 24 22 20 18 16 16 17 17 17 17 17 15 13 15 16 16 16 16 14 12 10 10 13 17 17 17 18 18 18 18 17 17 17 17 16 15 16 16 16 16 18 18 17 17 18 20 23 24 23 22 22 23 22 22 23 22
5 4 4 5 6 6 6 5 5 6 7 8 9 11 13 16 17 18 19 20 20 21 22 23 23 23 24 24 23 24 24 24 21 19 17 19 20 19 18 16 15 15 16 16 15 16 17 17 16 13 13 17 21 20 20 21 20 21 21 19 20 21 20 20 19 19 19 18 18 20 22 22 21 20 21 25 27 26 25 25 25 24 24 23 24
7 7 5 5 6 6 6 6 5 5 6 6 7 8 8 9 9 10 13 15 16 17 18 19 20 21 23 23 21 22 24 24 23 23 20 19 20 19 19 18 17 17 17 16 15 15 17 18 17 15 14 19 22 21 21 22 21 21 21 20 20 21 22 21 20 19 20 20 21 23 25 26 26 26 27 28 29 28 28 28 28 27 27 27 28
8 4 5 5 5 4 4 4 5 5 5 5 7 7 6 6 7 7 10 12 14 17 18 19 21 23 24 24 22 22 23 21 22 24 23 21 20 19 18 18 18 18 19 17 15 16 17 16 16 14 15 19 21 20 20 20 20 20 20 19 20 21 22 22 21 20 21 21 22 24 25 25 25 26 27 28 28 28 29 30 31 32 33 33 32
10 4 3 4 5 6 5 4 3 3 3 3 4 5 5 6 7 8 10 13 14 16 17 19 22 24 25 25 25 26 24 20 18 20 21 21 20 18 17 17 15 15 15 14 13 15 16 14 14 14 15 18 19 19 19 19 20 21 21 21 22 23 23 23 23 23 23 23 24 25 25 25 24 25 27 28 29 30 31 32 34 35 36 36 33
9 6 4 5 5 7 7 7 6 4 3 3 3 4 4 5 5 6 8 11 13 15 18 20 22 24 25 25 25 26 24 21 18 18 18 17 17 16 15 14 13 12 12 12 13 15 15 14 14 14 16 19 20 19 20 21 22 22 22 22 22 22 21 21 21 22 22 22 22 23 25 28 28 29 31 32 32 33 34 35 35 35 35 35 32
12 10 9 8 7 7 8 9 9 7 5 4 4 3 3 4 3 3 5 7 11 15 19 21 23 24 24 24 23 23 23 21 19 18 17 16 17 16 14 13 13 12 11 11 13 16 16 15 15 16 17 19 19 20 20 20 20 21 20 20 19 18 18 18 19 20 19 18 16 16 20 26 27 27 29 30 30 31 31 33 34 33 32 31 28
16 15 14 12 11 11 13 14 14 12 10 7 5 5 6 6 5 4 3 1 4 9 13 16 20 22 22 20 20 21 20 19 18 16 15 16 17 15 12 11 11 11 11 12 14 16 15 15 16 16 17 18 18 17 17 16 15 14 13 13 12 12 13 13 14 14 14 13 12 12 16 20 19 19 21 22 22 24 25 28 31 32 33 32 30
18 17 17 17 16 17 20 21 20 17 15 13 12 13 14 14 13 13 13 13 10 6 3 7 14 17 16 15 15 14 14 14 13 12 13 13 13 13 12 10 10 10 10 11 13 14 14 14 14 13 12 11 9 8 7 7 6 5 5 6 6 7 8 8 9 9 9 10 10 11 13 14 13 13 14 15 16 18 20 23 26 28 30 30 30
21 19 19 20 20 21 23 25 24 23 22 20 20 23 25 23 22 22 21 19 17 17 17 18 21 22 21 20 18 15 14 13 11 11 12 12 12 12 10 9 8 9 8 8 9 9 8 7 5 3 1 1 1 0 1 2 2 2 2 3 4 5 6 6 7 7 7 9 10 10 10 11 11 11 12 12 14 16 17 18 18 19 20 21 23
25 23 22 23 24 24 24 25 25 25 25 23 23 26 27 27 27 26 23 21 20 21 22 23 23 24 24 23 21 19 18 16 14 13 12 12 12 11 9 8 7 6 6 6 6 5 5 4 5 5 4 4 4 4 4 3 3 4 4 5 5 5 6 6 7 7 8 9 10 10 10 10 10 10 11 11 13 14 15 15 14 12 12 12 14
25 25 24 25 26 25 24 24 24 25 27 26 26 28 30 29 28 25 22 22 22 22 23 24 24 24 23 22 22 21 20 18 16 14 13 13 12 12 11 10 9 9 8 7 8 7 7 7 7 5 4 3 3 3 3 4 5 5 6 7 7 7 7 6 6 7 7 9 9 9 10 10 9 9 10 10 11 12 12 13 13 12 11 10 11
24 26 26 26 27 27 26 26 26 26 28 29 29 30 32 30 27 24 23 22 22 23 24 26 25 25 24 22 22 22 20 18 17 15 14 14 13 12 12 11 9 8 7 6 5 4 4 6 6 3 1 2 2 3 4 5 6 7 8 8 9 9 8 8 7 6 6 7 8 8 8 8 8 8 9 10 10 10 10 12 12 11 9 7 6
23 25 26 27 28 28 28 28 28 29 30 32 31 31 33 31 28 26 25 25 25 25 26 26 26 25 24 23 23 23 21 19 17 14 12 11 10 10 11 10 8 6 5 5 4 3 2 4 4 2 1 2 3 4 6 8 9 9 9 9 9 8 8 8 7 7 6 6 6 6 6 5 5 7 9 10 9 8 9 10 10 10 9 8 7
22 23 23 24 26 27 27 28 29 28 28 29 29 29 28 27 25 24 25 26 26 26 25 25 24 23 22 22 22 21 20 19 18 16 13 11 11 10 10 10 9 6 5 4 3 2 2 2 2 1 2 3 4 5 7 9 9 9 9 9 8 7 7 7 7 7 6 6 6 5 4 3 5 9 12 12 10 10 9 8 8 8 8 8 9
21 22 23 25 27 28 29 30 30 28 25 25 26 25 23 22 22 22 23 25 25 25 24 24 24 23 22 21 20 20 19 18 17 16 15 14 13 11 10 10 9 8 6 5 3 2 3 2 1 2 3 3 3 5 7 8 8 8 8 8 8 7 6 6 6 6 6 5 5 5 4 4 6 9 10 10 9 9 8 6 6 5 4 5 7
23 24 25 26 27 28 29 30 29 28 27 26 25 23 22 21 21 22 23 24 24 24 23 21 21 22 22 21 20 20 19 18 17 16 15 15 13 12 11 10 9 8 7 6 4 4 3 3 2 3 3 4 4 5 7 8 8 8 8 8 7 7 6 6 6 6 5 4 3 3 4 3 3 4 5 5 6 6 6 6 6 6 4 4 5
25 26 26 27 27 28 29 29 27 26 26 26 24 22 20 18 18 19 21 22 22 22 21 20 19 19 20 20 19 18 18 17 17 16 15 15 14 13 12 11 9 8 8 6 5 5 4 4 4 4 5 5 5 6 7 7 8 8 8 8 7 6 6 5 5 5 4 3 4 2 1 2 2 2 3 4 5 5 6 6 6 5 5 4 3
27 28 28 28 27 27 27 27 26 25 25 24 23 22 20 19 18 18 19 20 20 19 18 18 18 18 18 18 17 17 17 16 15 15 14 13 13 12 11 10 9 8 7 6 6 6 6 6 6 6 6 6 6 6 6 6 7 7 7 7 6 5 5 4 3 2 2 4 3 1 1 2 2 3 3 4 4 5 5 5 5 4 4 4 4
Wind_Direction
166 163 164 167 168 169 169 169 172 171 172 177 175 172 171 170 168 165 163 165 166 167 165 162 163 161 160 161 159 158 157 154 152 147 145 149 155 151 135 135 139 134 134 133 132 138 144 142 144 144 143 158 160 142 126 94 63 54 50 50 44 41 53 57 54 57 73 88 97 117 124 122 102 57 52 69 49 83 91 351 355 331 335 13 2
166 166 167 168 170 172 171 172 175 174 176 176 174 175 174 173 173 170 170 169 168 171 169 166 169 166 163 163 162 164 160 155 156 154 151 158 161 151 142 148 146 138 136 134 133 135 140 142 138 140 149 158 161 156 149 116 71 54 38 31 32 42 56 58 54 55 62 73 89 114 127 136 126 356 1 41 357 12 81 221 326 328 333 350 347
170 172 171 171 173 175 175 176 178 178 178 176 175 178 175 175 179 177 176 174 171 174 172 169 171 167 165 165 161 162 161 158 164 166 157 159 165 154 151 156 147 138 137 131 130 138 143 141 130 136 155 158 166 175 171 195 58 53 38 30 28 36 60 60 43 32 41 62 81 80 83 141 142 335 335 1 342 339 325 278 302 332 329 326 329
175 177 175 174 175 177 179 178 179 180 180 179 177 179 178 180 184 181 180 179 176 176 173 172 173 170 170 171 166 165 171 170 171 174 168 165 170 164 162 161 150 151 156 140 141 154 148 144 144 149 159 161 171 184 172 170 43 31 18 37 39 26 42 51 39 26 29 35 33 27 18 108 85 6 335 338 323 323 328 329 334 322 316 317 314
181 182 179 178 178 181 183 180 180 181 183 183 181 180 181 184 187 184 183 182 182 180 175 174 176 173 174 177 173 171 173 173 171 175 174 167 166 171 174 170 162 167 171 158 160 165 154 157 159 153 161 169 165 168 165 164 79 10 340 29 32 12 15 20 25 29 24 26 28 16 0 20 8 347 342 312 299 307 316 310 316 311 307 317 313
188 186 182 182 181 183 184 183 183 183 185 186 184 183 182 185 189 188 186 185 187 187 181 177 177 178 182 181 177 176 172 174 173 173 175 166 162 172 177 176 173 174 181 177 174 177 172 175 172 165 175 175 168 170 158 142 74 355 315 20 19 0 7 1 4 27 20 18 29 30 16 357 346 336 336 335 300 302 308 301 300 310 311 310 306
192 190 188 186 184 184 186 186 186 185 186 186 186 187 184 185 191 192 192 190 192 193 189 184 183 184 187 184 183 183 178 179 177 169 170 166 163 168 169 182 182 174 190 202 192 194 194 195 191 182 180 176 178 169 141 116 108 264 284 313 325 331 11 3 346 6 12 14 22 19 4 335 331 331 333 337 320 309 315 307 304 312 315 311 310
193 192 192 191 188 187 188 189 189 186 186 185 186 189 188 189 194 197 198 196 197 199 196 191 189 190 190 188 188 188 185 185 178 170 171 171 169 168 163 187 196 182 192 207 204 207 206 202 204 191 186 192 181 155 135 171 213 247 276 296 307 321 355 351 333 348 353 359 2 344 337 322 317 314 319 324 316 319 325 309 303 309 312 310 313
195 195 195 193 192 191 189 190 190 186 186 186 186 188 190 193 197 199 201 200 200 201 199 195 194 194 193 192 194 191 188 189 185 184 188 182 181 187 181 186 203 198 197 202 203 210 213 205 209 202 201 209 174 170 224 232 245 257 269 301 314 310 308 306 321 339 333 339 342 329 325 318 306 300 299 307 312 318 315 303 304 313 312 312 316
199 197 196 196 194 193 191 189 188 187 186 187 186 186 190 195 200 201 200 200 202 201 200 199 198 197 195 195 198 196 193 197 200 201 199 194 193 204 207 198 200 206 211 213 207 207 216 209 212 217 214 226 216 214 236 265 296 305 291 276 274 278 286 294 306 312 306 309 314 310 312 310 304 303 298 303 312 309 304 304 310 316 316 316 317
200 199 198 199 196 194 193 189 187 186 185 186 186 186 188 194 201 202 200 200 202 202 202 202 202 202 200 199 200 201 204 208 210 211 207 205 205 211 223 217 208 203 210 224 219 212 221 215 210 226 228 231 237 236 243 272 303 308 286 276 281 285 286 290 295 300 297 297 300 292 294 296 296 302 301 306 313 309 310 310 310 315 316 312 313
200 199 199 200 198 195 193 191 189 187 186 186 186 187 188 193 201 203 203 202 202 203 204 203 205 206 205 206 207 208 210 212 215 220 217 215 217 222 230 227 220 213 212 223 222 218 230 229 219 229 235 233 236 233 231 231 229 251 273 279 290 291 291 293 293 293 290 289 290 283 285 291 289 294 300 305 306 307 312 308 307 316 314 308 312
199 199 200 200 199 196 193 192 191 189 189 188 187 189 189 193 200 203 203 203 201 202 205 205 206 209 208 209 212 213 212 213 218 224 224 222 221 226 234 233 229 222 219 223 220 219 235 241 234 235 243 240 238 237 238 239 235 243 261 267 288 293 290 290 286 284 282 281 282 281 284 288 286 288 293 297 298 300 304 302 307 314 308 306 310
199 199 200 200 200 197 194 193 193 192 193 192 190 190 192 194 199 203 204 203 201 201 205 208 209 210 210 210 212 215 215 217 222 223 224 226 222 223 228 229 231 228 224 224 221 222 233 242 239 238 244 248 249 249 249 251 249 249 256 255 267 280 279 281 282 282 282 280 280 281 283 285 285 286 285 287 289 293 299 301 307 308 304 306 304
200 200 200 201 201 199 197 195 196 196 196 194 193 193 194 196 200 202 204 204 203 203 204 208 210 211 212 213 213 216 217 220 225 225 222 223 224 228 228 221 221 224 225 227 227 228 232 238 242 243 247 249 251 253 253 260 262 260 263 260 258 273 282 281 279 278 280 281 281 281 283 284 285 287 285 285 286 290 297 299 303 305 305 308 306
200 201 201 200 201 200 199 199 199 199 198 197 196 196 196 198 202 203 203 205 205 205 206 208 210 213 214 214 214 216 218 218 224 228 226 226 228 229 230 226 222 220 224 231 234 235 234 237 241 250 258 256 252 253 251 254 262 265 269 269 267 270 276 276 275 278 280 282 283 283 284 284 285 285 285 286 284 284 289 292 295 300 303 309 310
200 201 201 200 201 201 201 202 202 200 200 200 199 201 203 202 203 204 203 205 206 205 207 209 211 214 215 214 214 217 219 219 222 228 228 231 233 229 225 226 227 224 224 228 233 237 237 235 231 236 252 256 252 256 256 256 263 265 267 274 274 262 263 273 277 275 276 280 283 284 286 288 288 288 287 288 284 279 283 287 289 293 296 302 305
201 200 199 198 199 201 202 204 205 202 201 204 206 209 211 209 205 206 203 203 206 205 206 209 210 213 215 216 216 217 219 219 221 225 225 227 231 227 220 219 222 222 218 217 221 231 239 241 239 236 243 251 248 247 249 254 263 265 266 275 277 266 263 271 277 276 275 277 278 279 282 285 288 289 287 286 282 279 280 279 283 288 285 287 292
198 196 199 202 201 202 206 207 207 206 203 208 214 215 215 213 207 206 206 204 204 204 206 210 211 213 215 218 219 217 217 217 218 221 221 221 222 221 219 218 218 219 223 224 222 224 236 247 253 251 250 256 256 250 252 260 264 264 268 276 280 276 272 272 275 278 277 276 277 279 282 283 286 288 286 283 278 276 277 276 279 282 280 280 281
193 199 208 212 209 205 209 213 214 214 211 210 216 215 213 213 209 207 207 206 205 204 206 210 211 212 215 217 219 219 217 216 217 219 218 218 217 215 217 219 217 218 224 231 229 223 225 234 242 244 243 248 250 245 249 260 263 261 258 253 255 264 271 272 271 271 271 275 277 279 281 282 285 286 285 283 278 275 276 278 280 281 281 282 280
197 208 215 218 217 210 210 217 219 220 218 214 216 217 211 209 211 211 208 206 207 207 208 211 211 211 214 215 218 219 218 217 218 220 219 217 216 214 214 216 217 217 217 222 228 227 228 229 227 229 230 233 238 237 238 248 258 263 262 255 255 265 271 270 268 267 268 271 274 278 282 283 285 286 285 282 279 278 279 279 282 283 282 283 279
207 215 215 215 216 210 207 215 217 217 218 217 217 218 214 208 211 214 210 207 208 207 210 213 213 213 215 215 215 216 218 217 216 220 220 217 217 216 215 215 215 219 220 221 225 227 230 228 222 225 226 227 238 244 241 243 251 257 260 257 260 271 276 272 272 274 275 275 275 280 284 285 286 287 286 285 282 280 279 278 280 280 280 281 276
212 214 211 208 210 208 206 213 216 215 218 222 221 220 219 217 216 217 214 212 211 209 213 219 218 219 220 219 216 214 216 217 215 218 220 218 218 219 219 218 216 220 222 222 221 219 225 226 220 224 227 228 240 246 241 241 247 252 253 250 248 253 260 264 269 272 275 277 276 280 284 284 284 283 284 287 286 284 283 282 282 280 280 279 275
210 209 206 205 207 206 206 212 218 220 223 226 226 226 227 226 224 224 222 220 218 215 220 225 224 224 225 223 219 216 215 216 216 217 219 219 218 218 220 219 216 218 219 221 220 214 221 228 223 225 234 234 238 241 237 239 247 253 254 253 249 249 252 255 258 261 264 266 270 275 279 280 281 282 284 287 288 287 286 284 284 285 284 283 280
202 202 202 204 205 206 210 217 223 226 228 229 230 231 232 231 230 230 228 226 225 224 227 229 226 225 225 223 222 219 217 216 216 216 217 219 219 218 219 218 217 218 216 218 220 214 219 228 224 226 238 240 238 238 235 235 241 249 252 251 251 254 256 258 260 264 265 265 268 271 274 277 279 280 283 287 287 287 286 285 286 285 283 283 281
198 198 201 203 205 208 214 221 226 230 232 232 233 235 235 234 234 233 233 232 229 228 230 229 227 226 224 222 221 219 218 219 220 219 217 217 218 218 218 218 218 219 217 218 220 218 220 225 224 224 232 238 238 238 239 239 237 242 246 245 248 253 256 260 263 265 267 268 268 269 269 270 272 274 278 281 284 286 287 288 287 284 283 281 280
197 197 200 204 209 212 214 220 225 228 231 233 234 237 238 238 236 236 236 236 233 230 229 228 227 226 225 222 219 218 218 219 222 225 222 217 216 216 218 219 219 220 221 220 220 221 222 225 227 226 229 236 237 237 243 247 242 241 245 246 248 252 255 258 261 263 264 264 265 267 269 269 269 272 273 275 281 286 287 287 287 286 284 282 281
191 192 195 205 215 218 219 222 225 227 229 231 233 235 238 239 239 238 238 238 237 234 230 227 226 226 226 223 219 218 219 219 222 227 227 222 217 214 216 218 218 219 221 221 222 225 227 229 233 233 231 234 239 241 246 251 251 248 247 248 248 251 254 257 260 262 264 266 267 267 268 268 268 269 270 272 276 279 281 284 285 286 286 284 283
187 190 195 205 215 222 225 226 228 229 229 229 231 233 237 240 241 240 240 240 240 238 234 230 227 226 226 225 223 224 225 227 229 231 231 227 221 217 217 217 218 219 221 222 221 223 227 229 232 235 235 235 240 244 240 240 250 254 253 253 252 253 256 257 260 262 262 266 270 270 271 270 265 266 272 278 279 277 277 278 280 283 285 286 285
178 185 193 200 205 216 223 225 227 230 231 232 232 235 238 241 242 242 242 242 242 241 239 234 231 229 229 229 230 231 232 234 236 235 234 231 225 220 220 221 222 220 218 220 221 221 226 231 235 238 240 240 243 246 243 241 251 260 263 266 269 271 272 272 275 277 274 270 271 274 275 275 277 282 285 284 281 278 276 277 279 279 278 280 282
171 176 182 184 187 198 209 217 222 226 230 233 235 238 240 242 243 243 244 243 242 243 242 239 236 235 234 233 233 234 235 235 234 232 231 231 227 222 219 221 224 224 224 226 225 223 221 224 233 237 238 242 243 244 248 252 256 261 264 269 275 279 280 279 282 284 283 278 275 274 275 279 287 294 290 282 282 283 281 282 282 279 275 273 273
189 182 177 172 175 181 186 199 211 217 223 229 234 239 242 243 244 245 244 243 241 244 248 246 242 239 238 238 236 234 234 234 232 228 224 224 225 222 221 224 226 227 230 229 226 227 225 223 230 232 234 242 244 244 252 258 260 262 263 268 276 279 278 278 279 279 280 278 276 274 274 275 280 281 277 279 286 288 286 284 283 281 278 274 270
174 179 184 176 172 178 179 185 196 201 210 220 229 236 240 243 245 246 246 244 243 248 252 250 247 244 241 239 236 235 239 243 241 234 226 222 221 222 223 223 223 223 229 233 233 235 234 231 231 231 231 240 246 251 259 263 264 266 267 270 274 276 278 279 278 276 278 278 277 276 275 274 274 275 276 280 283 285 284 282 281 281 279 277 275
95 119 154 166 161 165 174 179 184 192 201 209 215 223 230 235 238 240 242 242 244 249 250 248 246 244 240 237 236 239 243 245 243 240 234 224 220 223 223 220 219 222 228 236 242 242 240 238 238 237 237 244 252 257 261 263 265 268 270 272 274 275 277 277 277 276 277 276 274 275 276 276 275 274 275 277 279 281 281 279 278 278 278 280 280
81 66 79 125 144 150 157 162 168 182 196 200 203 210 214 220 223 226 233 238 240 241 240 240 241 239 238 239 241 243 244 242 240 239 239 231 223 223 225 226 228 231 231 235 241 244 245 245 244 243 245 252 257 259 261 263 265 268 270 272 275 276 277 276 276 276 274 272 271 273 275 276 277 276 275 275 276 276 276 276 275 274 276 279 281
112 68 48 69 98 110 123 145 163 181 189 188 192 196 198 206 211 214 224 231 235 236 237 238 238 236 236 237 241 245 244 241 238 236 236 235 228 221 224 231 235 234 232 233 236 242 246 247 248 248 251 258 262 261 262 266 268 269 272 273 275 276 277 277 276 275 274 275 275 275 276 277 278 278 276 275 274 274 274 274 273 272 274 277 278
127 119 54 45 62 74 81 96 122 158 180 180 184 183 184 195 201 205 214 223 230 235 238 240 241 242 242 238 238 242 242 238 236 235 234 234 229 221 219 225 227 226 229 232 234 239 241 240 244 248 252 260 267 269 268 269 270 271 273 273 273 274 276 278 278 277 277 277 277 277 276 275 274 273 274 274 275 276 276 275 274 274 274 275 273
118 107 77 59 74 91 100 109 121 139 156 171 182 183 183 183 184 196 213 224 232 235 237 240 241 244 244 239 233 233 234 231 231 235 233 225 218 212 206 205 210 215 219 222 228 234 237 240 246 252 256 263 269 270 269 270 272 274 276 275 275 274 275 276 277 277 278 277 278 279 277 276 276 275 274 275 275 276 276 275 275 275 274 273 271
100 94 88 81 85 94 102 110 114 118 125 145 160 159 155 155 163 194 222 237 242 242 245 246 243 241 242 238 231 228 227 223 224 228 224 209 200 201 198 196 206 215 218 224 234 240 245 249 253 256 258 261 265 267 269 273 276 279 282 282 282 280 278 277 277 278 280 281 281 281 280 281 283 282 280 279 278 277 276 274 273 272 271 269 268
96 90 89 89 93 100 99 94 94 95 96 104 121 129 131 135 141 142 125 132 245 249 255 249 236 234 236 229 220 216 212 210 213 213 206 196 193 196 198 198 208 219 225 234 241 244 247 250 252 254 256 259 263 267 271 277 282 286 288 288 287 285 282 280 281 282 282 280 277 275 279 284 287 285 283 283 283 282 280 279 277 273 269 266 265
98 95 98 101 100 98 94 88 85 87 89 98 112 116 115 116 114 106 93 84 84 89 107 168 179 185 187 179 176 181 185 189 192 188 187 191 193 193 196 200 210 221 227 230 236 240 243 247 249 251 253 255 258 264 273 281 286 291 293 289 286 285 282 283 286 288 286 283 279 277 280 287 292 290 289 290 291 292 292 290 285 278 272 268 266
105 106 109 109 102 96 94 95 96 96 95 99 107 108 106 104 101 96 93 93 94 95 99 112 125 131 133 135 139 146 152 155 156 161 170 178 178 179 185 194 203 213 217 220 223 224 225 228 229 221 205 176 156 2 348 344 339 332 317 303 297 295 294 296 299 301 300 294 290 288 291 297 302 303 304 303 301 302 306 308 304 295 284 274 269
107 108 109 109 105 98 97 100 103 105 104 104 105 104 101 97 95 94 96 99 100 100 102 106 111 116 120 123 125 128 131 132 136 143 148 147 145 149 157 165 166 164 164 164 157 150 146 136 113 98 90 81 63 40 20 8 356 345 333 323 315 308 304 302 304 309 310 305 300 301 306 310 313 316 319 318 314 314 320 328 335 333 322 305 289
103 105 106 108 106 102 102 102 103 104 105 104 103 101 97 95 96 100 102 103 104 103 102 102 104 108 112 115 117 118 118 118 120 125 126 122 119 120 126 130 124 116 115 116 111 109 112 107 96 84 73 60 40 15 0 347 333 326 322 318 316 313 311 307 304 307 313 312 308 307 313 321 327 331 332 330 328 334 342 350 357 1 356 339 314
104 105 106 107 106 105 104 103 102 102 101 99 99 98 96 95 97 100 101 101 103 102 98 96 95 96 100 104 108 111 113 114 115 117 118 113 106 105 109 112 110 108 104 94 84 80 83 88 92 93 48 0 348 343 343 330 317 313 313 311 312 313 312 309 304 300 308 317 315 311 318 330 339 340 341 340 343 354 7 11 12 15 15 4 343
106 105 105 104 103 101 100 99 100 100 100 99 98 96 95 95 95 95 96 97 97 97 95 94 93 93 95 97 98 100 103 106 107 108 110 110 106 106 111 110 103 94 86 85 91 92 69 73 93 135 264 330 340 342 335 323 317 317 317 315 315 313 311 312 308 299 300 313 323 326 328 333 345 353 354 354 358 11 23 29 35 49 60 64 69
109 107 106 105 102 100 100 100 99 97 98 98 98 95 93 93 94 97 98 97 95 95 95 95 96 96 97 98 99 101 103 104 104 102 103 105 105 105 111 114 111 103 93 98 117 123 103 81 58 358 344 351 346 333 325 325 328 331 330 330 329 325 322 321 315 307 303 305 317 332 336 337 359 10 10 7 9 22 32 31 41 60 76 81 82
112 111 109 107 104 102 101 101 101 100 101 100 98 97 97 98 101 102 101 99 97 95 94 95 95 96 96 96 97 99 100 102 103 104 105 106 107 106 107 112 119 124 128 138 143 107 84 83 46 352 356 5 344 325 329 338 343 344 344 345 343 340 335 325 316 314 311 305 317 346 4 16 18 18 19 15 13 27 37 32 33 45 48 47 51
113 112 109 106 105 103 102 102 102 104 104 102 100 99 99 101 103 104 102 101 99 97 95 94 92 93 93 94 94 95 96 96 97 98 99 101 103 105 105 103 106 109 110 114 111 92 78 72 49 18 15 16 356 342 345 350 351 350 349 349 349 346 340 330 323 322 322 330 358 9 10 23 26 22 28 28 25 31 36 34 40 47 40 30 38
114 112 109 107 105 105 105 105 105 106 106 106 105 104 104 104 105 104 102 99 96 95 94 94 93 92 92 91 90 90 89 89 88 87 87 87 87 89 91 91 92 93 90 87 81 70 60 49 34 17 12 9 1 354 352 350 349 349 348 349 350 346 342 338 327 323 344 30 50 44 21 37 47 43 40 38 36 39 42 42 46 52 55 58 63
114 114 112 109 106 105 104 104 106 106 106 105 105 106 108 108 107 105 102 99 96 92 89 89 90 89 87 85 83 82 81 82 82 80 78 77 74 72 71 71 70 67 63 60 54 45 36 30 24 15 10 7 2 360 356 351 348 346 347 350 348 344 348 349 330 325 35 55 55 63 83 69 59 49 38 34 36 44 54 62 63 67 81 91 99